Wind_Speed
21 21 22 21 21 20 19 17 15 14 13 12 11 9 8 9 9 8 7 7 8 9 9 8 7 6 6 5 4 3 3 3 2 2 3 4 4 5 5 6 6 7
22 21 22 22 22 21 20 19 17 16 15 14 13 12 11 10 9 9 9 8 8 9 9 9 8 7 7 7 6 5 4 3 3 3 3 4 4 5 6 6 7 7
22 22 22 22 22 22 21 20 19 18 17 16 15 14 13 12 11 11 11 10 9 9 9 9 9 9 8 8 7 6 5 4 4 4 4 4 5 5 6 6 7 7
23 23 22 22 22 22 22 22 21 21 20 19 17 16 15 15 14 13 13 12 11 10 10 10 10 10 9 9 8 8 7 6 5 5 4 4 4 5 5 6 7 8
24 23 23 22 23 23 23 23 23 22 22 20 19 19 18 17 17 16 15 14 13 12 11 10 10 10 10 10 10 9 8 8 7 6 5 5 5 4 4 5 6 8
24 24 24 23 23 24 24 24 23 23 23 22 21 21 20 19 19 18 17 15 14 13 12 12 11 11 11 11 11 11 10 9 9 8 7 6 6 5 4 5 6 7
25 24 24 24 25 25 25 24 24 24 24 23 23 22 21 21 21 20 19 18 17 15 14 13 13 12 12 12 12 12 12 11 11 10 9 9 8 7 6 6 6 7
25 24 25 25 25 26 25 25 25 25 25 25 24 24 23 23 22 22 21 21 20 18 17 16 15 14 14 14 13 12 13 13 13 12 11 11 10 9 8 8 8 9
26 25 25 26 26 26 26 25 25 25 25 26 25 24 24 24 24 24 24 23 23 22 20 19 18 17 16 15 14 13 13 13 14 14 13 13 12 12 11 11 10 10
28 27 27 27 27 27 26 26 25 25 26 26 26 25 25 25 26 26 26 26 25 24 23 22 21 20 19 17 16 15 14 14 15 15 15 15 14 14 14 14 13 13
30 29 29 28 28 27 27 26 26 26 27 27 27 27 27 26 27 27 28 28 27 26 25 23 22 22 21 19 18 17 16 16 16 16 17 17 17 17 17 17 16 15
31 30 30 29 28 28 27 27 27 27 28 28 29 29 28 28 28 28 28 28 27 27 26 25 24 23 22 21 20 19 18 18 18 18 18 18 18 18 19 19 18 17
31 31 30 29 28 28 28 28 28 28 29 29 29 30 30 29 29 28 28 28 28 28 27 26 25 25 24 23 21 21 20 19 19 19 19 19 19 20 20 21 20 20
31 31 30 30 29 29 29 29 29 29 29 29 29 31 31 31 30 29 29 28 28 28 27 27 27 26 25 24 23 22 22 21 20 21 21 21 21 21 22 22 22 22
30 30 30 30 30 30 30 30 29 29 29 30 30 31 31 31 30 30 30 29 29 29 28 28 28 27 25 24 23 23 23 23 22 22 22 23 23 23 24 24 24 24
28 29 29 30 30 30 30 30 30 30 30 30 31 31 31 31 31 32 32 31 30 29 29 29 28 27 26 25 24 24 25 25 24 23 23 24 25 25 26 26 26 25
27 28 28 29 30 30 30 31 31 31 31 31 31 31 31 31 32 33 33 32 31 31 30 30 29 27 26 25 25 25 26 27 26 25 24 24 25 26 26 26 26 26
27 27 28 28 29 29 30 30 31 32 32 32 32 31 31 32 32 33 33 32 32 32 31 31 29 28 27 27 27 27 27 28 27 26 25 25 25 26 25 26 26 26
26 27 28 28 28 28 28 29 30 32 32 32 32 32 32 32 32 33 33 33 33 32 31 31 30 29 28 28 28 27 28 29 28 27 26 26 26 26 26 26 26 26
26 27 28 28 27 27 27 28 29 30 31 32 33 33 34 33 32 32 32 32 32 32 31 30 30 29 29 29 28 28 28 30 30 29 28 27 26 26 27 27 26 26
24 25 27 27 28 28 28 29 29 30 31 31 33 34 34 34 33 32 31 31 30 30 30 30 29 28 28 29 28 28 29 30 31 31 29 28 27 27 27 27 27 27
23 23 24 25 27 30 31 32 31 31 31 31 32 33 34 34 34 33 32 30 29 28 28 28 26 26 27 28 28 29 30 31 32 32 31 29 28 27 27 26 26 26
23 23 23 24 26 29 32 34 33 32 32 32 31 31 32 32 33 32 32 31 30 29 28 26 24 24 25 26 27 28 30 31 32 32 32 30 28 27 27 26 26 26
24 23 23 24 26 26 27 29 30 31 32 32 31 30 30 29 29 30 31 31 30 29 28 26 24 23 24 25 26 27 30 31 32 32 32 31 30 28 27 26 25 25
26 23 22 24 25 25 24 24 25 27 31 33 32 30 28 26 25 27 28 29 28 27 27 27 25 24 25 25 25 27 29 30 31 32 32 32 30 29 28 27 26 25
27 25 23 23 23 24 24 25 24 24 27 30 29 28 26 25 24 24 26 27 27 26 27 27 26 25 25 26 26 27 29 30 31 32 31 31 30 29 28 28 27 26
Wind_Direction
211 208 207 208 209 212 214 213 211 213 216 221 228 231 231 231 231 228 225 220 210 208 208 203 203 210 215 217 217 214 216 214 203 207 224 222 203 188 183 184 187 189
214 211 209 208 208 209 213 215 213 214 216 219 223 228 230 232 233 231 231 229 222 216 215 212 210 213 218 223 225 223 216 206 193 189 193 189 182 181 181 178 176 173
215 214 212 210 209 208 211 215 216 216 218 220 222 224 226 230 233 234 233 233 231 227 224 220 217 218 221 225 229 231 228 215 200 195 192 178 171 180 181 175 172 167
216 216 215 212 211 210 210 213 215 216 219 221 223 223 224 227 230 232 233 233 233 234 233 230 225 224 226 229 231 232 233 230 218 206 203 194 183 187 184 174 168 163
218 218 218 216 214 213 213 213 214 215 218 219 221 223 225 227 230 232 233 233 233 234 236 236 233 230 229 233 235 236 237 237 232 222 218 215 206 205 199 182 172 166
219 219 218 218 218 217 216 215 215 216 217 218 219 221 224 227 231 234 235 234 233 233 236 237 238 235 233 232 234 239 242 242 239 231 227 229 223 216 210 199 189 180
221 220 220 220 220 220 219 217 217 218 218 219 220 221 222 225 229 233 235 236 236 236 237 239 240 240 238 235 232 236 241 244 244 237 231 234 232 224 215 209 204 197
224 223 223 223 223 223 221 219 218 219 220 221 222 222 223 225 228 232 234 236 237 238 240 240 241 241 242 242 238 236 238 241 245 242 235 233 232 230 224 216 210 205
226 226 225 226 226 225 224 222 220 220 221 223 224 224 225 226 228 231 234 236 237 238 239 240 241 242 243 243 242 241 240 240 242 244 241 237 233 232 230 223 215 210
228 228 227 228 228 228 227 225 223 222 222 224 225 226 227 227 228 230 233 236 238 239 239 240 241 243 244 244 243 242 242 241 241 242 243 241 237 234 233 229 221 216
230 230 230 230 231 231 230 228 227 225 224 224 226 227 228 228 229 230 232 235 238 239 241 241 241 242 243 245 244 242 242 242 242 242 242 242 240 238 238 235 228 222
231 232 233 233 233 234 234 233 231 229 226 225 226 228 229 229 229 230 231 233 236 239 241 242 243 242 242 243 244 244 242 241 242 243 242 241 241 240 241 240 237 230
231 234 236 236 236 237 237 237 236 234 231 228 227 228 229 230 230 231 231 232 234 237 240 242 242 243 242 241 243 245 245 243 242 243 243 243 242 241 241 242 241 237
231 234 237 238 239 239 239 240 240 239 237 234 232 230 230 231 232 232 232 233 233 235 238 240 241 242 242 241 242 245 247 247 245 244 244 245 244 243 241 242 242 241
230 232 235 237 239 240 241 242 242 243 242 239 237 235 233 233 233 234 234 234 234 234 236 238 240 241 242 242 243 245 248 250 249 247 246 245 245 244 243 243 243 243
229 230 232 235 237 239 241 243 244 245 245 243 241 239 238 237 236 236 237 236 236 237 237 238 240 241 242 243 243 245 247 250 250 249 247 246 246 245 245 245 245 245
230 230 231 233 236 238 240 242 244 246 247 247 245 243 240 240 239 239 240 240 240 240 240 241 242 242 243 243 243 244 245 248 249 249 248 247 246 247 247 247 247 246
231 230 230 231 233 236 238 240 242 245 247 248 248 247 245 243 242 242 242 243 244 244 244 245 245 246 246 245 244 244 245 247 248 248 247 247 247 248 248 248 248 247
231 230 229 229 231 233 235 238 240 242 245 247 249 249 248 246 244 244 244 244 244 245 246 247 248 248 248 248 247 245 245 246 248 248 247 246 246 247 248 248 248 248
232 231 230 229 230 231 232 234 236 239 242 244 246 247 248 248 247 246 245 245 245 245 245 246 246 247 247 248 247 246 245 246 248 248 248 246 244 244 245 246 247 248
235 235 235 234 233 232 232 232 233 235 237 240 243 245 247 248 248 248 248 247 246 246 246 245 244 244 245 245 246 245 245 245 247 249 249 248 245 244 243 244 246 247
238 238 237 237 236 235 235 235 234 233 234 235 239 242 245 246 247 248 248 248 248 248 247 246 244 243 243 243 243 244 244 244 246 248 250 250 248 247 245 245 245 246
238 237 234 232 233 234 237 240 242 241 238 236 234 235 240 244 246 247 248 248 249 248 248 248 245 244 244 243 242 242 243 244 246 248 250 251 250 249 248 247 246 245
237 236 234 231 230 233 236 240 246 250 250 248 244 238 235 237 241 244 246 247 248 248 249 249 246 244 244 244 242 242 243 245 246 248 250 251 251 250 250 250 248 246
239 237 236 234 232 233 234 236 241 248 251 253 253 247 239 236 237 240 244 246 247 247 247 247 245 243 243 244 243 243 245 247 248 249 250 251 251 251 251 251 250 249
245 244 243 239 234 233 234 237 240 243 245 249 252 249 244 243 243 244 245 245 247 247 246 246 245 244 243 244 243 244 245 248 249 251 252 253 253 253 252 252 252 251
Height
3221 3223 3224 3226 3228 3230 3231 3232 3234 3235 3237 3238 3240 3241 3242 3242 3243 3245 3246 3247 3248 3248 3249 3249 3250 3251 3251 3252 3252 3253 3253 3254 3254 3255 3255 3256 3256 3257 3258 3258 3259 3259
3220 3222 3223 3225 3226 3228 3230 3231 3232 3234 3235 3237 3239 3240 3241 3242 3243 3244 3245 3246 3247 3248 3248 3249 3250 3250 3251 3252 3252 3253 3253 3254 3254 3254 3255 3255 3256 3257 3258 3258 3259 3259
3218 3220 3222 3223 3225 3227 3229 3230 3231 3232 3234 3236 3237 3239 3240 3241 3242 3243 3244 3245 3246 3247 3248 3249 3250 3250 3251 3251 3252 3253 3253 3254 3254 3254 3255 3255 3256 3257 3257 3258 3258 3259
3216 3218 3220 3222 3224 3226 3227 3228 3230 3231 3233 3234 3236 3238 3239 3240 3241 3242 3243 3244 3246 3247 3247 3248 3249 3250 3250 3251 3252 3253 3253 3254 3254 3254 3255 3255 3256 3256 3257 3257 3258 3258
3215 3217 3219 3221 3222 3224 3225 3227 3228 3230 3232 3233 3235 3236 3237 3239 3240 3241 3242 3244 3245 3246 3247 3248 3249 3249 3250 3251 3251 3252 3253 3253 3254 3254 3255 3255 3255 3256 3256 3257 3257 3258
3213 3215 3216 3218 3220 3222 3223 3225 3227 3228 3230 3232 3233 3234 3236 3237 3238 3240 3241 3242 3244 3245 3246 3247 3248 3249 3249 3250 3251 3251 3252 3252 3253 3254 3254 3255 3255 3255 3256 3256 3257 3257
3211 3213 3215 3216 3217 3219 3221 3223 3225 3226 3228 3230 3231 3232 3234 3235 3237 3238 3240 3241 3242 3243 3244 3245 3246 3247 3248 3249 3250 3250 3251 3251 3252 3253 3254 3254 3255 3255 3255 3256 3256 3257
3210 3211 3213 3214 3215 3217 3219 3221 3222 3224 3226 3227 3229 3230 3232 3233 3235 3237 3238 3239 3240 3241 3242 3244 3245 3246 3246 3247 3248 3249 3250 3250 3251 3252 3253 3253 3254 3254 3254 3255 3255 3256
3207 3209 3211 3212 3213 3215 3216 3218 3220 3222 3224 3225 3226 3228 3229 3231 3233 3235 3236 3237 3238 3239 3240 3241 3243 3244 3244 3245 3247 3247 3248 3249 3250 3250 3251 3252 3253 3253 3253 3254 3254 3255
3205 3206 3208 3209 3211 3213 3215 3216 3218 3220 3221 3222 3224 3226 3227 3229 3230 3232 3233 3235 3236 3237 3238 3239 3241 3242 3242 3243 3245 3246 3246 3247 3248 3249 3249 3250 3251 3251 3252 3252 3253 3253
3202 3204 3205 3207 3209 3211 3213 3215 3216 3217 3219 3220 3222 3223 3225 3226 3228 3229 3231 3232 3234 3235 3236 3238 3239 3239 3240 3241 3242 3243 3244 3245 3246 3247 3247 3248 3249 3250 3250 3250 3251 3252
3199 3201 3203 3205 3207 3209 3211 3213 3214 3215 3217 3218 3220 3221 3222 3224 3225 3226 3228 3229 3231 3233 3234 3235 3236 3237 3238 3239 3240 3241 3242 3243 3243 3244 3245 3246 3247 3248 3248 3249 3249 3250
3197 3199 3201 3203 3205 3207 3209 3210 3212 3213 3215 3216 3218 3219 3220 3221 3222 3224 3225 3227 3228 3230 3231 3233 3234 3235 3236 3236 3237 3238 3239 3240 3241 3242 3242 3243 3244 3245 3246 3246 3247 3248
3195 3197 3199 3201 3203 3204 3206 3208 3209 3211 3212 3214 3215 3216 3217 3219 3220 3221 3222 3224 3225 3226 3228 3229 3230 3231 3233 3234 3235 3236 3237 3238 3238 3239 3240 3241 3242 3243 3243 3244 3245 3246
3193 3195 3197 3198 3200 3202 3203 3205 3207 3208 3210 3211 3212 3213 3215 3216 3217 3218 3219 3220 3222 3223 3225 3226 3227 3228 3230 3231 3233 3233 3234 3235 3236 3237 3238 3238 3239 3240 3240 3241 3242 3243
3191 3193 3194 3196 3197 3199 3200 3202 3204 3205 3207 3208 3210 3211 3212 3214 3215 3215 3216 3217 3218 3220 3221 3222 3224 3225 3227 3229 3230 3231 3232 3232 3233 3234 3235 3235 3236 3237 3238 3238 3239 3240
3188 3190 3191 3193 3194 3196 3198 3199 3201 3202 3204 3205 3207 3208 3210 3211 3212 3212 3213 3214 3215 3217 3218 3219 3221 3223 3225 3226 3227 3228 3229 3229 3230 3231 3231 3232 3233 3234 3235 3236 3237 3237
3184 3186 3188 3190 3191 3193 3194 3196 3198 3199 3200 3202 3203 3205 3207 3208 3208 3209 3211 3212 3213 3213 3215 3216 3218 3220 3221 3223 3224 3225 3225 3226 3226 3227 3228 3229 3230 3231 3232 3233 3234 3235
3180 3182 3184 3186 3188 3189 3191 3192 3194 3195 3197 3198 3200 3202 3203 3204 3205 3206 3208 3209 3209 3210 3212 3213 3215 3216 3218 3219 3220 3222 3222 3222 3223 3224 3225 3226 3227 3228 3229 3230 3231 3232
3177 3179 3180 3182 3184 3185 3186 3188 3189 3191 3193 3195 3196 3198 3199 3200 3202 3203 3204 3205 3206 3207 3209 3210 3211 3213 3215 3216 3217 3218 3219 3219 3219 3220 3221 3222 3223 3224 3225 3226 3227 3228
3173 3175 3177 3179 3181 3182 3183 3184 3185 3186 3189 3191 3193 3194 3195 3197 3198 3199 3201 3202 3203 3204 3205 3206 3208 3210 3211 3212 3213 3214 3215 3215 3216 3216 3217 3218 3220 3221 3222 3223 3224 3225
3169 3171 3173 3175 3177 3179 3180 3181 3182 3183 3185 3187 3188 3190 3192 3194 3195 3196 3197 3199 3200 3201 3202 3203 3205 3207 3208 3209 3210 3211 3211 3211 3212 3212 3213 3215 3216 3217 3218 3220 3221 3221
3164 3166 3169 3171 3172 3174 3177 3179 3181 3182 3183 3184 3185 3186 3188 3190 3191 3193 3194 3195 3196 3198 3199 3200 3202 3204 3205 3206 3207 3207 3207 3208 3208 3209 3210 3211 3212 3214 3215 3216 3217 3218
3160 3162 3164 3166 3168 3171 3173 3176 3179 3182 3183 3184 3186 3186 3185 3186 3187 3189 3190 3191 3193 3194 3195 3197 3198 3200 3201 3202 3203 3204 3204 3204 3205 3205 3206 3207 3209 3210 3211 3212 3213 3215
3156 3158 3160 3162 3165 3168 3170 3173 3176 3179 3180 3181 3184 3186 3186 3185 3184 3184 3185 3187 3189 3190 3192 3193 3194 3197 3198 3199 3200 3200 3200 3201 3202 3202 3202 3203 3205 3206 3208 3209 3210 3211
3154 3155 3157 3159 3162 3164 3167 3170 3172 3174 3176 3177 3179 3181 3183 3183 3182 3181 3181 3183 3185 3186 3188 3189 3191 3193 3194 3196 3197 3197 3198 3198 3198 3198 3199 3200 3202 3203 3204 3205 3206 3207